Back to catalog

KANOPUS-V 6

AliveScienceSSO
NORAD 43877·PAYLOAD·🇷🇺 Russia

Launched Dec 27, 2018 from Vostochny Cosmodrome

Loading…

Next Passes (next 24 hours)

TLE

FreshSource: Space-Track

Epoch: Sep 14, 2026, 14:51 UTC

1 43877U 18111B   26257.61940419  .00000028  00000-0  27482-5 0  9995
2 43877  97.3651 175.4214 0001867  90.0591 270.0869 15.40301404429292

Track KANOPUS-V 6 in real time with AllMySat

Download on the App Store